Location: Bettgenhausen
(50.6463°N, 7.5681°E)
Time: 19:45:46
(UTC+00:00)

NOSS 3-1 (C) - Pass Details

Date: 27 February 2020
Orbit: 759 x 1449 km, 63.4° (Epoch: 26 March)

Event Time Altitude Azimuth Distance (km) Brightness Sun altitude
Rises 18:15:48 0° 246° (WSW) 3,361 7.6 -11.7°
Reaches altitude 10° 18:18:11 10° 252° (WSW) 2,496 6.9 -12.1°
Maximum altitude 18:23:47 49° 327° (NNW) 1,215 4.3 -13.0°
Drops below altitude 10° 18:30:24 10° 42° (NE) 2,936 5.6 -14.0°
Enters shadow 18:32:13 - 46° (NE) 3,579 6.1 -14.3°
